GOES 16 (41866 NORAD) Tracking and Keplerian Element Data

This shows tracking and keplerian element data for the satellite.

Feedback or suggestion? Click here.




ElementValue
Catalog41866
NameGOES 16
Epoch Orbit1774
Epoch Day261.85318897
Epoch Year2021
RAAN89.2205
Inclination0.112
Eccentricity0.0001017
Argument of Perigee109.6079
Mean Anonmoly31.0893
Mean Motion1.00270205
Decay Rate-2.72E-06
L11 41866U 16071A 21261.85318897 -.00000272 00000-0 00000-0 0 9993
L22 41866 0.1120 89.2205 0001017 109.6079 31.0893 1.00270205 17748

Live tracking and technical data element details for GOES 16 (NORAD 41866). GOES 16 can be tracked NOW for your location showing map with azimuth and elevation plus other details from your city location.

Track the satellite on the map from your city or location and see movement details for azimuth, elevation, latitude, longitude, range, height, and movement on the map or in text.







IsCatalogInMostPopularTable: catalog: 41866, numindb: 544
Update: records affected: 1



GetName: 41866 GOES 16

Hit Count: updated at: Sun, 26 Sep 2021 01:07:01 GMT